www.pogodaiklimat.ru

Погода и климат >> Архив погоды >> Кувейт >> Mitribah


ПОГОДА в Mitribah

  • Прогноз погоды в Mitribah
  • Монитор погоды в Mitribah
  • Климат города

АРХИВ ПОГОДЫ в Mitribah

Время (UTC), дата Ветер
(напр.,м/с)
 
Видим.   Явления Облачность Т
(С)
Тd
(С)
f
(%)
Тe
(С)
Тes
(С)
Комфортность P
(гПа)
Po
(гПа)
Тmin
(С)
Tmax
(С)
R
(мм)
R24
(мм)
S
(см)
12 12.12 СЗ 3-5
{7}
20 км н/о +21.5 +9.6 47 +23 +23 комфорт 1020.4 1020.0
15 12.12 С 3-3
{6}
18 км н/о +17.0 +11.5 70 +17 +17 1020.9 1021.0
18 12.12 ЮВ 3-3
{6}
16 км н/о +15.3 +10.3 72 +15 +15 1021.4 1021.0
21 12.12 Ю 3-4
{4}
11 км н/о +12.8 +9.6 81 +11 +11 1021.4 1021.0 +9.5 +22.9
00 13.12 Ю 4-4
{4}
8000 м дымка н/о +12.0 +9.8 86 +10 +10 1021.2 1021.0
03 13.12 Ю 3-3
{4}
5000 м дымка н/о +11.1 +9.7 91 +9 +9 1022.1 1022.0
06 13.12 Ю 3-4
{4}
13 км н/о +16.1 +11.2 73 +16 +16 1023.6 1024.0
09 13.12 В 2-4
{5}
20 км н/о +22.1 +10.1 46 +24 +24 комфорт 1021.7 1022.0
12 13.12 СВ 4-6
{7}
19 км н/о +23.0 +10.6 45 +25 +25 комфорт 1020.6 1021.0
15 13.12 В 2-3
{6}
18 км н/о +18.2 +11.5 65 +19 +19 1022.1 1022.0
18 13.12 Ю 5-5
{6}
13 км н/о +15.5 +11.7 78 +14 +14 1023.1 1023.0
21 13.12 ЮЗ 3-3
{6}
5000 м дымка н/о +13.3 +11.9 91 +12 +12 1023.1 1023.0 +10.5 +23.9
00 14.12 ЮЗ 4-6
{6}
4200 м дымка н/о +13.0 +11.8 92 +11 +11 1023.8 1024.0
03 14.12 З 3-3
{5}
2700 м дымка н/о +11.8 +11.2 96 +10 +10 1024.4 1024.0
06 14.12 З 5-6
{6}
7000 м дымка н/о +16.8 +13.8 82 +16 +16 1025.7 1026.0
09 14.12 СЗ 6-8
{9}
18 км н/о +21.5 +11.5 53 +24 +24 комфорт 1023.8 1024.0
12 14.12 СЗ 6-8
{9}
18 км н/о +22.0 +7.9 40 +23 +23 комфорт 1023.1 1023.0
15 14.12 З 4-5
{8}
19 км н/о +17.4 +9.2 59 +17 +17 1024.6 1025.0
18 14.12 З 5-6
{8}
17 км н/о +15.1 +10.0 72 +14 +14 1025.3 1025.0
21 14.12 З 6-8
{8}
19 км н/о +13.4 +9.8 79 +11 +11 1024.7 1025.0 +11.7 +22.5
00 15.12 З 5-6
{8}
4800 м дымка н/о +12.3 +11.4 94 +10 +10 1024.9 1025.0
03 15.12 З 6-7
{8}
16 км н/о +11.0 +8.2 83 +8 +8 1025.5 1026.0
06 15.12 З 7-9
{11}
20 км н/о +14.4 +5.6 55 +13 +13 1027.2 1027.0
09 15.12 СЗ 10-13
{14}
19 км н/о +19.5 +3.4 34 +19 +19 1024.6 1025.0
12 15.12 СЗ 9-11
{14}
20 км н/о +19.7 +2.9 33 +19 +19 1023.4 1023.0
15 15.12 З 5-6
{11}
20 км н/о +15.2 +5.1 51 +14 +14 1025.0 1025.0
18 15.12 З 5-5
{11}
19 км н/о +12.4 +5.7 64 +10 +10 1026.0 1026.0
21 15.12 З 5-6
{6}
20 км н/о +10.5 +6.3 75 +8 +8 1025.8 1026.0 +10.5 +20.6
00 16.12 З 4-5
{7}
20 км н/о +9.3 +6.7 84 +6 +6 1025.6 1026.0
03 16.12 З 4-5
{6}
19 км н/о +8.8 +6.6 86 +6 +6 1026.5 1027.0
06 16.12 З 4-5
{6}
19 км н/о +13.1 +7.3 68 +11 +11 1027.3 1027.0
09 16.12 З 5-7
{7}
20 км н/о +19.6 +4.2 36 +20 +20 1025.4 1025.0
12 16.12 СЗ 4-5
{7}
20 км н/о +20.2 +1.4 29 +21 +21 комфорт 1024.1 1024.0
15 16.12 СЗ 3-3
{5}
20 км н/о +14.9 +5.0 52 +14 +14 1025.2 1025.0
18 16.12 З 2-2
{5}
20 км н/о +13.3 +5.1 58 +13 +13 1025.4 1025.0
21 16.12 ЮВ 2-3
{3}
20 км н/о +11.6 +5.3 65 +11 +11 1024.4 1024.0 +8.5 +20.8
00 17.12 В 1-2
{3}
20 км н/о +12.2 +3.4 55 +12 +12 1023.5 1024.0
03 17.12 ЮВ 4-4
{4}
15 км н/о +10.2 +5.7 74 +8 +8 1022.9 1023.0
06 17.12 ЮВ 4-5
{5}
19 км н/о +15.4 +6.6 56 +15 +15 1023.6 1024.0
09 17.12 ЮВ 7-10
{10}
16 км н/о +21.4 +8.4 43 +23 +23 комфорт 1020.3 1020.0
12 17.12 ЮВ 8-12
{12}
18 км н/о +22.7 +8.5 40 +24 +24 комфорт 1018.4 1018.0
15 17.12 В 6-8
{11}
12 км н/о +17.3 +14.1 81 +17 +17 1018.8 1019.0
18 17.12 В 3-5
{11}
6000 м дымка н/о +16.7 +15.0 90 +17 +17 1019.7 1020.0
21 17.12 ЮВ 5-9
{11}
6000 м дымка н/о +16.4 +13.6 84 +15 +15 1018.8 1019.0 +9.9 +23.0
00 18.12 З 6-7
{12}
19 км {ливн. осадки, дождь} н/о +16.7 +11.3 70 +16 +16 1021.1 1021.0
03 18.12 СВ 5-7
{13}
5000 м в посл. час дождь {ливн. осадки} н/о +14.5 +13.7 95 +13 +13 1021.1 1021.0
06 18.12 В 4-5
{13}
5000 м дымка {ливн. осадки, дождь} н/о +16.9 +15.0 89 +16 +16 1023.4 1023.0
09 18.12 ЮВ 2-5
{7}
11 км н/о +19.3 +14.3 73 +21 +21 комфорт 1022.3 1022.0
12 18.12 З 7-8
{8}
4900 м дымка н/о +18.1 +14.7 81 +18 +18 1021.9 1022.0
15 18.12 З 7-8
{10}
5000 м дымка н/о +14.9 +13.0 88 +13 +13 1023.3 1023.0
18 18.12 З 5-7
{10}
5000 м дымка н/о +14.6 +12.9 90 +13 +13 1024.7 1025.0
21 18.12 З 5-6
{7}
2800 м дымка н/о +14.2 +13.2 94 +13 +13 1024.6 1025.0 +14.2 +20.0
00 19.12 З 4-4
{7}
4000 м дымка н/о +13.9 +12.7 92 +12 +12 1024.2 1024.0
03 19.12 ЮЗ 3-4
{6}
3200 м дымка н/о +12.0 +11.6 97 +10 +10 1024.4 1024.0
06 19.12 З 4-5
{6}
4900 м дымка н/о +15.1 +12.1 82 +14 +14 1025.7 1026.0

 

Местоположение метеостанции Mitribah (Кувейт): широта 29.82 долгота 47.37 высота над уровнем моря 119 м.

В архиве по умолчанию представлена погода в Mitribah за последнюю неделю. Архивные данные за месяц целиком и за предыдущие месяцы, начиная с января 2011 года, Вы можете получить, выбрав интересующий диапазон дат из раскрывающегося списка и нажав кнопку "Ввод!".


*Определитесь, кто Вы:
робот инопланетянин человек

Внимание! Время в таблицах - всемирное. Для получения местного времени необходимо прибавить поправку, которая в Mitribah равна 3 ч.

Смотрите также архив погоды в соседних городах и на ближайших метеорологических станциях:

Погода в Jal Aliyah (Кувейт) (31 км)
Погода в Abdaly (Кувейт) (43 км)
Погода в Sabriyah (Кувейт) (47 км)
Погода в Jahra (Кувейт) (63 км)
Погода в Abraque Al Habari (Кувейт) (68 км)
Погода в Sulaibiya (Кувейт) (70 км)
Погода в Experimental Farm (Кувейт) (81 км)
Погода в Minagish (Кувейт) (85 км)
Погода в Kuwait City (Кувейт) (85 км)
Погода в Basrah Airport (Ирак) (87 км)

Пояснения к столбцам:

Ветер - указаны скорость ветра в м/с - средняя за 10 мин, порывы в срок и между сроками (в фигурных скобках) и направление, откуда дует ветер: С - северный, СВ - северо-восточный, В - восточный, ЮВ - юго-восточный, Ю - южный, ЮЗ - юго-западный, З - западный, СЗ - северо-западный.
Видимость - горизонтальная дальность видимости в метрах или километрах. При видимости от 1 до 10 км при отсутствии осадков обычно наблюдается дымка, при ухудшении видимости до 1 км и менее - туман. В сухую погоду видимость может ухудшаться дымом, пылью или мглою.
Явления - указаны атмосферные явления, наблюдавшиеся в срок или в последний час перед сроком; фигурными скобками обозначены явления, наблюдавшиеся между сроками (за 1-3 часа до срока); квадратными скобками обозначены град или гололедные отложения с указанием их диаметра в мм.
Облачность - указаны через наклонную черту общая и нижняя облачность в баллах и высота нижней границы облаков в метрах; квадратными скобками обозначены формы облаков: Ci - перистые, Cs - перисто-слоистые, Cc - перисто-кучевые, Ac - высококучевые, As - высокослоистые, Sc - слоисто-кучевые, Ns - слоисто-дождевые, Cu - кучевые, Cb - кучево-дождевые. Подробнее классификацию облаков см. в Атласе облаков (PDF).
T - Температура воздуха - температура, измеренная на высоте 2 м над землей.
Td - Температура точки росы - температура, при понижении до которой содержащийся в воздухе водяной пар достигнет насыщения.
f - Относительная влажность воздуха - влажноcть воздуха, измеренная на высоте 2 м над землей.
Te - Эффективная температура - температура, которую ощущает одетый по сезону человек в тени. Характеристика душности погоды. При расчете учитывается влияние влажности воздуха и скорости ветра на теплоощущения человека.
Tes - Эффективная температура на солнце - температура, которую ощущает человек, с поправкой на солнечный нагрев. Характеристика знойности погоды. Зависит от высоты солнца над горизонтом, облачности и скорости ветра. Ночью, в пасмурную погоду, а также при ветре 12 м/с и более поправка равна нулю.
P - Атмосферное давление - приведенное к уровню моря атмосферное давление.
Po - Атмосферное давление - измеренное на уровне метеостанции атмосферное давление.
Tmin - Минимальная температура - минимум температуры воздуха на высоте 2 м над землей.
Tmax - Максимальная температура - максимум температуры воздуха на высоте 2 м над землей.
R - Количество осадков - Количество выпавших осадков за период времени, мм. При наведении курсора мыши на число - период времени, за который выпало указанное количество осадков.
R24 - Количество осадков - Количество выпавших осадков за 24 часа, мм.
S - Снежный покров - Высота снежного покрова, см. При наведении курсора мыши на число - состояние снежного покрова и степень покрытия местности в баллах.